TimePST,TemperatureF,Dew PointF,Humidity,Sea Level PressureIn,VisibilityMPH,Wind Direction,Wind SpeedMPH,Gust SpeedMPH,PrecipitationIn,Events,Conditions,WindDirDegrees,DateUTC
12:52 AM,59.0,39.9,49,29.98,10.0,WNW,3.5,-,N/A,,Clear,290,2012-11-06 08:52:00
1:52 AM,57.0,41.0,55,29.97,10.0,NNW,4.6,-,N/A,,Clear,340,2012-11-06 09:52:00
2:52 AM,59.0,37.9,46,29.97,10.0,North,6.9,-,N/A,,Clear,350,2012-11-06 10:52:00
3:52 AM,53.1,39.0,59,29.97,10.0,Calm,Calm,-,N/A,,Clear,0,2012-11-06 11:52:00
4:52 AM,59.0,36.0,42,29.98,10.0,North,6.9,-,N/A,,Clear,350,2012-11-06 12:52:00
5:52 AM,55.0,37.0,51,29.99,10.0,WNW,4.6,-,N/A,,Clear,300,2012-11-06 13:52:00
6:52 AM,61.0,37.0,41,30.01,10.0,NNW,3.5,-,N/A,,Clear,340,2012-11-06 14:52:00
7:52 AM,70.0,39.9,33,30.03,10.0,Calm,Calm,-,N/A,,Clear,0,2012-11-06 15:52:00
8:52 AM,75.9,39.9,27,30.02,10.0,Calm,Calm,-,N/A,,Clear,0,2012-11-06 16:52:00
9:52 AM,82.9,43.0,24,30.02,10.0,Calm,Calm,-,N/A,,Clear,0,2012-11-06 17:52:00
10:52 AM,88.0,39.0,18,30.00,10.0,SE,4.6,-,N/A,,Clear,140,2012-11-06 18:52:00
11:52 AM,89.1,46.0,22,30.00,10.0,Variable,5.8,-,N/A,,Clear,0,2012-11-06 19:52:00
12:52 PM,91.0,37.0,15,29.94,10.0,SSE,4.6,-,N/A,,Clear,150,2012-11-06 20:52:00
1:52 PM,91.9,39.9,16,29.92,10.0,SSE,6.9,-,N/A,,Clear,160,2012-11-06 21:52:00
2:52 PM,91.0,37.9,15,29.91,10.0,SSE,6.9,-,N/A,,Clear,150,2012-11-06 22:52:00
3:52 PM,88.0,37.9,17,29.90,10.0,South,4.6,-,N/A,,Clear,170,2012-11-06 23:52:00
4:52 PM,75.9,43.0,31,29.90,10.0,Calm,Calm,-,N/A,,Clear,0,2012-11-07 00:52:00
5:52 PM,66.9,44.1,44,29.91,10.0,Calm,Calm,-,N/A,,Clear,0,2012-11-07 01:52:00
6:52 PM,64.9,46.9,52,29.92,10.0,Calm,Calm,-,N/A,,Clear,0,2012-11-07 02:52:00
7:52 PM,64.9,48.0,54,29.94,10.0,NNW,4.6,-,N/A,,Clear,340,2012-11-07 03:52:00
8:52 PM,62.1,46.9,58,29.95,10.0,West,4.6,-,N/A,,Clear,280,2012-11-07 04:52:00
9:52 PM,61.0,46.9,60,29.96,10.0,North,3.5,-,N/A,,Clear,10,2012-11-07 05:52:00
10:52 PM,57.9,45.0,62,29.95,10.0,NNE,3.5,-,N/A,,Clear,20,2012-11-07 06:52:00
11:52 PM,59.0,45.0,60,29.95,10.0,North,4.6,-,N/A,,Clear,350,2012-11-07 07:52:00